Regional Weather Roundup
Issued by NWS

Home | Current Version | Previous Version | Text Only | Print | Product List | Glossary Off
Versions: 1 2 3 4 5 6 7 8 9 10 11 12 13 14 15 16 17 18 19 20 21 22 23 24 25 26 27 28 29 30 31 32 33 34 35 36 37 38 39 40 41 42 43 44 45 46 47 48 49 50

000
ASUS43 KDTX 191010
RWRMI
MICHIGAN HOURLY REGIONAL WEATHER ROUNDUP
NATIONAL WEATHER SERVICE DETROIT/PONTIAC MI
ISSUED BY NATIONAL WEATHER SERVICE GRAND RAPIDS MI
500 AM EST THU JAN 19 2017

NOTE: "FAIR" INDICATES FEW OR NO CLOUDS BELOW 12,000 FEET WITH NO
SIGNIFICANT WEATHER AND/OR OBSTRUCTION TO VISIBILITY.

MIZ047>049-052>055-059>063-066>070-074>076-081>083-191100-
SOUTHEAST LOWER MICHIGAN

CITY           SKY/WX    TMP DP  RH WIND       PRES   REMARKS
ADRIAN         CLOUDY    32  32 100 W7        30.08S WCI  26
ALMA           CLOUDY    35  32  91 SW9       30.03S WCI  27
ANN ARBOR      CLOUDY    32  31  96 SW8       30.06S WCI  25
BAD AXE        CLOUDY    32  31  96 SW9       30.01F FOG     WCI  25
DETROIT CITY   CLOUDY    34  30  86 SW12      30.07R WCI  25
DETROIT        CLOUDY    33  31  92 SW15      30.08S WCI  23
FLINT          CLOUDY    33  30  88 SW6       30.05S WCI  28
GROSSE ILE     CLOUDY    33  31  93 W9        30.07R WCI  25
HILLSDALE      CLOUDY    32  32 100 W9        30.05S FOG     WCI  24
HOWELL         CLOUDY    32  30  92 SW8       30.04S WCI  25

CITY           SKY/WX    TMP DP  RH WIND       PRES   REMARKS
JACKSON        CLOUDY    33  30  88 W10       30.05F WCI  25
LANSING        CLOUDY    33  29  85 W9        30.05S WCI  25
MASON          CLOUDY    32  31  96 SW8       30.05S WCI  25
MONROE         CLOUDY    33  33  98 W8        30.07F FOG     WCI  27
MT. CLEMENS    CLOUDY    33  31  92 W7        30.04F WCI  27
PONTIAC        CLOUDY    32  28  85 W9        30.04R WCI  24
PORT HOPE        N/A     34  31  88 SW3       29.99S
PORT HURON     CLOUDY    34  32  93 CALM      30.04F
TRI CITIES     CLOUDY    34  32  92 SW9       30.02F FOG     WCI  27
YPSILANTI      CLOUDY    34  32  92 SW10      30.07S WCI  26
$$
MIZ043>046-050>051-056>058-064>065-071>073-077>080-191100-
SOUTHWEST LOWER MICHIGAN

CITY           SKY/WX    TMP DP  RH WIND       PRES   REMARKS
BATTLE CREEK   CLOUDY    34  32  92 SW9       30.06R WCI  27
BENTON HARBOR  CLOUDY    37  33  85 S6        30.05F WCI  32
BIG RAPIDS     CLOUDY    34  32  92 SW9G16    29.98S FOG     WCI  27
COLDWATER      CLOUDY    33  33  99 SW8       30.07S WCI  26
HOLLAND        CLOUDY    37  34  89 SW10      30.04S WCI  30
GRAND RAPIDS   CLOUDY    35  32  88 SW12      30.03F FOG     WCI  27
KALAMAZOO      CLOUDY    34  30  85 SW8       30.06F WCI  27
MARSHALL       CLOUDY    33  32  94 SW6       30.05F WCI  28
MOUNT PLEASANT CLOUDY    34  33  93 SW7       30.00S FOG     WCI  28
MUSKEGON       CLOUDY    37  34  89 SW8       30.03S WCI  31
STURGIS        CLOUDY    33  32  96 W8        30.06R WCI  26
$$
MIZ016>042-191100-
NORTHERN LOWER MICHIGAN

CITY           SKY/WX    TMP DP  RH WIND       PRES   REMARKS
ALPENA         CLOUDY    34  31  88 S3        29.98R
BEAVER ISLAND  CLOUDY    35  33  92 SW7       29.93S WCI  29
BELLAIRE       CLOUDY    35  32  90 S5        29.96S WCI  31
CADILLAC       CLOUDY    32  32  99 SW9       29.94S FOG     WCI  24
CHARLEVOIX     CLOUDY    36  34  92 S5        29.97S WCI  32
GAYLORD        CLOUDY    34  30  85 SW7       29.92F FOG     WCI  28
HOUGHTON LAKE  CLOUDY    33  31  92 SW8       29.96S FOG     WCI  26
MANISTEE       CLOUDY    35  33  92 SW7       29.97S FOG     WCI  29
OSCODA         CLOUDY    35  32  90 CALM      29.98S
PELLSTON       CLOUDY    36  31  82 SW6       29.95R WCI  31
TRAVERSE CITY  CLOUDY    36  32  85 S6        29.94F WCI  31
LUDINGTON      CLOUDY    34  33  96 SW14      29.99S FOG     WCI  25
$$
MIZ007>008-015-191100-
EASTERN UPPER MICHIGAN

CITY           SKY/WX    TMP DP  RH WIND       PRES   REMARKS
KINROSS        CLOUDY    34  33  96 S5        29.92S FOG     WCI  30
MACKINAC ISLAN CLOUDY    35  35 100 SW8       29.93S WCI  28
NEWBERRY       CLOUDY    31  31  97 SW8       29.90S FOG     WCI  24
S. S. MARIE    CLOUDY    36  33  89 S5        29.92R WCI  32
$$
MIZ004>006-011>014-085-191100-
CENTRAL UPPER MICHIGAN

CITY           SKY/WX    TMP DP  RH WIND       PRES   REMARKS
MANISTIQUE     CLEAR     28  28  98 CALM      29.90S FOG
ESCANABA       CLOUDY    27  27 100 CALM      29.89F FOG
SAWYER-GWINN   FOG       19  18  95 SW3       29.85F VSB 1/4
$$
MIZ001>003-009>011-084-191100-
WESTERN UPPER MICHIGAN

CITY           SKY/WX    TMP DP  RH WIND       PRES   REMARKS
IRON MOUNTAIN  CLOUDY    22  19  89 S3        29.85S FOG
HOUGHTON       CLOUDY    27  23  85 CALM      29.82F
COPPER HARBOR    N/A     29  25  85 SW8       29.84S WCI  21
IRONWOOD       CLOUDY    34  33  96 S5        29.82S FOG     WCI  30
$$

ABBREVIATIONS USED IN REMARKS
   TC - TEMPERATURE IN CELSIUS
  WCI - WIND CHILL INDEX
   HX - HEAT INDEX
  VSB - VISIBILITY





USA.gov is the U.S. government's official web portal to all federal, state and local government web resources and services.